User: anonymous   Login
Location: Unspecified
(0.0000°N, 0.0000°E)
Time: 08:19:22
(UTC+00:00)
Language:

NJUST-1 - Orbit

View from above orbital plane
View from above orbital plane
View from above satellite
View from above satellite

Ground track
Ground track

The orbit data is extracted from the following two-line orbital elements,

1 42722U 98067MB  18267.89723414 +.00027762 +00000-0 +22377-3 0  9997
2 42722 051.6346 212.6227 0003128 236.1818 123.8882 15.70671844076232
Epoch (UTC): 24 September 2018 21:32:01
Eccentricity: 0.0003128
inclination: 51.6346°
perigee height: 355 km
apogee height: 359 km
right ascension of ascending node: 212.6227°
argument of perigee: 236.1818°
revolutions per day: 15.70671844
mean anomaly at epoch: 123.8882°
orbit number at epoch: 7623

The dashed part of the orbit path shows where the satellite is in the earth's shadow,  

DLR